| time (UTC) | temp F | wind direction | speed knots | gust knots | rain 1hr in | rain 24hr in | rain mn in | humidity % | barometer mb |
| 20260831163424 | 90 | 24 | 1.7 | 4.3 | 0.00 | 0.00 | 0.00 | 67 | 1017.3 |
| 20260831162425 | 89 | 44 | 1.7 | 4.3 | 0.00 | 0.00 | 0.00 | 71 | 1017.4 |
| 20260831161424 | 91 | 5 | 1.7 | 7.0 | 0.00 | 0.00 | 0.00 | 74 | 1017.5 |
| 20260831160425 | 88 | 331 | 1.7 | 4.3 | 0.00 | 0.00 | 0.00 | 74 | 1017.6 |
| 20260831155426 | 90 | 343 | 1.7 | 7.0 | 0.00 | 0.00 | 0.00 | 74 | 1017.8 |
| 20260831154425 | 86 | 10 | 0.9 | 2.6 | 0.00 | 0.00 | 0.00 | 77 | 1017.8 |
| 20260831153422 | 87 | 19 | 1.7 | 6.1 | 0.00 | 0.00 | 0.00 | 77 | 1017.9 |
| 20260831152422 | 87 | 21 | 1.7 | 6.1 | 0.00 | 0.00 | 0.00 | 76 | 1017.9 |
| 20260831151422 | 87 | 15 | 2.6 | 7.8 | 0.00 | 0.00 | 0.00 | 77 | 1018.0 |
| 20260831150906 | 86 | 20 | 0.9 | 2.6 | 0.00 | 0.00 | 0.00 | 77 | 1017.9 |
| 20260831145423 | 85 | 28 | 0.9 | 3.5 | 0.00 | 0.00 | 0.00 | 78 | 1017.8 |
| 20260831144414 | 87 | 29 | 0.9 | 4.3 | 0.00 | 0.00 | 0.00 | 76 | 1017.7 |
| 20260831143412 | 87 | 27 | 1.7 | 4.3 | 0.00 | 0.00 | 0.00 | 78 | 1017.7 |
| 20260831142412 | 86 | 24 | 0.9 | 3.5 | 0.00 | 0.00 | 0.00 | 82 | 1017.7 |
| 20260831141412 | 85 | 27 | 1.7 | 3.5 | 0.00 | 0.00 | 0.00 | 84 | 1017.7 |
| 20260831140413 | 84 | 351 | 1.7 | 3.5 | 0.00 | 0.00 | 0.00 | 84 | 1017.8 |
| 20260831135410 | 83 | 10 | 0.9 | 5.2 | 0.00 | 0.00 | 0.00 | 89 | 1017.8 |
| 20260831134410 | 82 | 15 | 0.9 | 3.5 | 0.00 | 0.00 | 0.00 | 91 | 1017.7 |
| 20260831133410 | 81 | 10 | 1.7 | 3.5 | 0.00 | 0.00 | 0.00 | 93 | 1017.6 |
| 20260831132816 | 79 | 19 | 0.9 | 3.5 | 0.00 | 0.00 | 0.00 | 94 | 1017.3 |
| 20260831132453 | 80 | 5 | 0.9 | 3.5 | 0.00 | 0.00 | 0.00 | 94 | 1017.5 |
| 20260831130408 | 79 | 337 | 0.9 | 4.3 | 0.00 | 0.00 | 0.00 | 95 | 1017.3 |
| 20260831125409 | 78 | 350 | 0.0 | 2.6 | 0.00 | 0.00 | 0.00 | 94 | 1017.3 |
| 20260831124407 | 78 | 350 | 0.0 | 2.6 | 0.00 | 0.00 | 0.00 | 94 | 1017.3 |
| 20260831123411 | 78 | 350 | 1.7 | 3.5 | 0.00 | 0.00 | 0.00 | 95 | 1017.3 |
| 20260831122402 | 78 | 348 | 0.9 | 2.6 | 0.00 | 0.00 | 0.00 | 95 | 1017.2 |
| 20260831121354 | 77 | 350 | 1.7 | 3.5 | 0.00 | 0.00 | 0.00 | 95 | 1017.1 |
| 20260831120348 | 77 | 341 | 0.0 | 0.0 | 0.00 | 0.00 | 0.00 | 95 | 1017.0 |
| 20260831115345 | 76 | 342 | 0.0 | 0.0 | 0.00 | 0.00 | 0.00 | 95 | 1016.8 |
| 20260831114346 | 76 | 342 | 0.0 | 0.0 | 0.00 | 0.00 | 0.00 | 95 | 1016.7 |
| 20260831113344 | 75 | 341 | 0.0 | 0.0 | 0.00 | 0.00 | 0.00 | 94 | 1016.6 |
| 20260831112341 | 75 | 341 | 0.0 | 0.0 | 0.00 | 0.00 | 0.00 | 95 | 1016.4 |
| 20260831111337 | 75 | 341 | 0.0 | 0.0 | 0.00 | 0.00 | 0.00 | 94 | 1016.4 |
| 20260831110333 | 75 | 342 | 0.0 | 0.0 | 0.00 | 0.00 | 0.00 | 94 | 1016.2 |
| 20260831105334 | 74 | 342 | 0.0 | 0.0 | 0.00 | 0.00 | 0.00 | 94 | 1015.9 |
| 20260831104336 | 74 | 342 | 0.0 | 0.0 | 0.00 | 0.00 | 0.00 | 95 | 1015.8 |
| 20260831103333 | 74 | 342 | 0.0 | 0.0 | 0.00 | 0.00 | 0.00 | 94 | 1015.9 |
| 20260831102333 | 74 | 342 | 0.0 | 0.0 | 0.00 | 0.00 | 0.00 | 94 | 1015.8 |
| 20260831101333 | 74 | 342 | 0.0 | 0.0 | 0.00 | 0.00 | 0.00 | 94 | 1015.7 |
| 20260831100814 | 74 | 342 | 0.0 | 0.0 | 0.00 | 0.00 | 0.00 | 94 | 1015.7 |
| 20260831095319 | 74 | 342 | 0.0 | 0.0 | 0.00 | 0.00 | 0.00 | 94 | 1015.6 |
| 20260831094320 | 74 | 342 | 0.0 | 0.0 | 0.00 | 0.00 | 0.00 | 94 | 1015.6 |
| 20260831093319 | 74 | 341 | 0.0 | 0.0 | 0.00 | 0.00 | 0.00 | 94 | 1015.6 |
| 20260831092322 | 74 | 342 | 0.0 | 0.0 | 0.00 | 0.00 | 0.00 | 94 | 1015.6 |
| 20260831091321 | 74 | 342 | 0.0 | 0.0 | 0.00 | 0.00 | 0.00 | 94 | 1015.6 |
| 20260831090317 | 75 | 342 | 0.0 | 2.6 | 0.00 | 0.00 | 0.00 | 94 | 1015.6 |
| 20260831085319 | 75 | 341 | 0.0 | 1.7 | 0.00 | 0.00 | 0.00 | 94 | 1015.7 |
| 20260831084318 | 75 | 342 | 0.0 | 0.0 | 0.00 | 0.00 | 0.00 | 94 | 1015.7 |
| 20260831083318 | 74 | 342 | 0.0 | 1.7 | 0.00 | 0.00 | 0.00 | 94 | 1015.7 |
| 20260831082315 | 74 | 341 | 0.0 | 0.0 | 0.00 | 0.00 | 0.00 | 94 | 1015.7 |
| 20260831081757 | 74 | 342 | 0.0 | 0.0 | 0.00 | 0.00 | 0.00 | 94 | 1015.8 |
| 20260831080753 | 74 | 342 | 0.0 | 0.0 | 0.00 | 0.00 | 0.00 | 94 | 1015.8 |
| 20260831075754 | 74 | 342 | 0.0 | 1.7 | 0.00 | 0.01 | 0.00 | 94 | 1015.9 |
| 20260831074316 | 74 | 341 | 0.0 | 0.0 | 0.00 | 0.01 | 0.00 | 94 | 1016.0 |
| 20260831073313 | 74 | 342 | 0.0 | 0.0 | 0.00 | 0.01 | 0.00 | 93 | 1016.2 |
| 20260831072311 | 74 | 342 | 0.9 | 1.7 | 0.00 | 0.01 | 0.00 | 94 | 1016.2 |
| 20260831071312 | 74 | 342 | 0.0 | 1.7 | 0.00 | 0.01 | 0.00 | 94 | 1016.2 |
| 20260831070309 | 75 | 341 | 0.0 | 0.0 | 0.00 | 0.01 | 0.00 | 94 | 1016.0 |
| 20260831065311 | 75 | 342 | 0.0 | 0.0 | 0.00 | 0.01 | 0.00 | 94 | 1016.1 |
| 20260831064312 | 75 | 342 | 0.0 | 0.0 | 0.00 | 0.01 | 0.00 | 94 | 1016.2 |
| 20260831063309 | 75 | 342 | 0.0 | 0.0 | 0.00 | 0.01 | 0.00 | 94 | 1016.3 |
| 20260831062752 | 75 | 342 | 0.0 | 0.9 | 0.00 | 0.01 | 0.00 | 94 | 1016.4 |
| 20260831061310 | 74 | 342 | 0.0 | 0.0 | 0.00 | 0.01 | 0.00 | 94 | 1016.3 |
| 20260831060309 | 74 | 341 | 0.0 | 0.0 | 0.00 | 0.01 | 0.00 | 93 | 1016.4 |
| 20260831055310 | 75 | 341 | 0.0 | 0.9 | 0.00 | 0.01 | 0.00 | 94 | 1016.5 |
| 20260831054311 | 75 | 342 | 0.0 | 0.0 | 0.00 | 0.01 | 0.00 | 93 | 1016.6 |
| 20260831053311 | 75 | 342 | 0.0 | 0.0 | 0.00 | 0.01 | 0.00 | 94 | 1016.8 |
| 20260831052308 | 75 | 342 | 0.0 | 0.0 | 0.00 | 0.01 | 0.00 | 94 | 1016.9 |
| 20260831051308 | 75 | 341 | 0.0 | 0.0 | 0.00 | 0.01 | 0.00 | 93 | 1017.0 |
| 20260831050334 | 75 | 341 | 0.0 | 0.0 | 0.00 | 0.01 | 0.00 | 93 | 1017.2 |
| 20260831050310 | 75 | 342 | 0.0 | 0.9 | 0.00 | 0.01 | 0.00 | 93 | 1017.0 |
| 20260831045730 | 76 | 342 | 0.0 | 0.9 | 0.00 | 0.01 | 0.00 | 93 | 1017.1 |
| 20260831043749 | 76 | 342 | 0.0 | 0.0 | 0.00 | 0.01 | 0.00 | 93 | 1017.1 |
| 20260831042306 | 76 | 342 | 0.0 | 0.0 | 0.00 | 0.01 | 0.00 | 93 | 1017.1 |
| 20260831041300 | 76 | 341 | 0.0 | 0.0 | 0.00 | 0.01 | 0.00 | 93 | 1017.2 |
| 20260831040741 | 76 | 342 | 0.0 | 0.0 | 0.00 | 0.01 | 0.00 | 93 | 1017.2 |
| 20260831035738 | 76 | 342 | 0.0 | 0.0 | 0.00 | 0.01 | 0.01 | 93 | 1017.2 |
| 20260831034257 | 76 | 342 | 0.0 | 0.0 | 0.00 | 0.01 | 0.01 | 93 | 1017.2 |
| 20260831033253 | 76 | 342 | 0.0 | 0.0 | 0.00 | 0.01 | 0.01 | 93 | 1017.4 |
| 20260831032255 | 76 | 342 | 0.0 | 0.0 | 0.00 | 0.01 | 0.01 | 93 | 1017.4 |
| 20260831031733 | 77 | 341 | 0.0 | 0.0 | 0.00 | 0.01 | 0.01 | 93 | 1017.3 |
| 20260831030255 | 77 | 342 | 0.0 | 0.0 | 0.00 | 0.01 | 0.01 | 93 | 1017.3 |
| 20260831025254 | 77 | 341 | 0.0 | 0.0 | 0.00 | 0.01 | 0.01 | 92 | 1017.2 |
| 20260831024255 | 77 | 342 | 0.0 | 0.0 | 0.00 | 0.01 | 0.01 | 92 | 1017.3 |
| 20260831023254 | 77 | 341 | 0.0 | 0.9 | 0.00 | 0.01 | 0.01 | 92 | 1017.3 |
| 20260831022253 | 77 | 342 | 0.0 | 0.0 | 0.00 | 0.01 | 0.01 | 92 | 1017.3 |
| 20260831021252 | 77 | 342 | 0.0 | 0.0 | 0.00 | 0.01 | 0.01 | 92 | 1017.3 |
| 20260831020250 | 78 | 341 | 0.0 | 0.0 | 0.00 | 0.01 | 0.01 | 92 | 1017.5 |
| 20260831015249 | 78 | 342 | 0.0 | 0.0 | 0.00 | 0.01 | 0.01 | 91 | 1017.4 |
| 20260831014245 | 78 | 342 | 0.0 | 0.0 | 0.00 | 0.01 | 0.01 | 91 | 1017.4 |
| 20260831013239 | 78 | 342 | 0.0 | 0.9 | 0.00 | 0.01 | 0.01 | 91 | 1017.4 |
| 20260831012237 | 78 | 342 | 0.0 | 0.0 | 0.00 | 0.01 | 0.01 | 90 | 1017.3 |
| 20260831011229 | 78 | 341 | 0.0 | 0.0 | 0.00 | 0.01 | 0.01 | 90 | 1017.4 |
| 20260831010717 | 78 | 342 | 0.0 | 0.0 | 0.00 | 0.01 | 0.01 | 91 | 1017.4 |
| 20260831005223 | 78 | 341 | 0.0 | 0.0 | 0.00 | 0.01 | 0.01 | 90 | 1017.3 |
| 20260831004222 | 79 | 341 | 0.0 | 0.0 | 0.00 | 0.01 | 0.01 | 90 | 1017.0 |
| 20260831003218 | 79 | 341 | 0.0 | 0.9 | 0.00 | 0.01 | 0.01 | 89 | 1016.8 |
| 20260831002214 | 80 | 341 | 0.0 | 2.6 | 0.00 | 0.01 | 0.01 | 88 | 1016.8 |
| 20260831001212 | 80 | 342 | 1.7 | 2.6 | 0.00 | 0.01 | 0.01 | 88 | 1016.8 |
| 20260831000211 | 80 | 341 | 0.9 | 2.6 | 0.00 | 0.01 | 0.01 | 87 | 1016.7 |
| 20260830235651 | 80 | 291 | 0.0 | 2.6 | 0.00 | 0.01 | 0.01 | 87 | 1016.5 |
| 20260830234207 | 80 | 292 | 0.9 | 2.6 | 0.00 | 0.01 | 0.01 | 87 | 1016.4 |
| 20260830233158 | 80 | 263 | 0.9 | 2.6 | 0.00 | 0.01 | 0.01 | 88 | 1016.5 |
| 20260830232157 | 81 | 263 | 0.0 | 0.9 | 0.00 | 0.01 | 0.01 | 87 | 1016.4 |
| 20260830231154 | 82 | 263 | 0.0 | 1.7 | 0.00 | 0.01 | 0.01 | 86 | 1016.4 |
| 20260830230139 | 82 | 262 | 0.0 | 0.9 | 0.00 | 0.01 | 0.01 | 84 | 1016.4 |
| 20260830225130 | 82 | 262 | 0.0 | 0.0 | 0.00 | 0.02 | 0.01 | 84 | 1016.4 |
| 20260830224125 | 82 | 262 | 0.0 | 0.9 | 0.00 | 0.02 | 0.01 | 84 | 1016.3 |
| 20260830223609 | 82 | 262 | 0.0 | 0.9 | 0.00 | 0.03 | 0.01 | 85 | 1016.2 |
| 20260830222108 | 82 | 262 | 0.0 | 1.7 | 0.00 | 0.04 | 0.01 | 84 | 1016.2 |
| 20260830221059 | 82 | 162 | 0.9 | 4.3 | 0.00 | 0.04 | 0.01 | 83 | 1016.2 |
| 20260830220053 | 82 | 162 | 0.9 | 4.3 | 0.00 | 0.05 | 0.01 | 83 | 1016.2 |
| 20260830215053 | 82 | 162 | 1.7 | 4.3 | 0.00 | 0.06 | 0.01 | 82 | 1016.2 |
| 20260830214048 | 82 | 158 | 1.7 | 6.1 | 0.00 | 0.06 | 0.01 | 82 | 1016.1 |
| 20260830213049 | 82 | 205 | 0.9 | 3.5 | 0.00 | 0.06 | 0.01 | 83 | 1016.2 |
| 20260830212049 | 82 | 162 | 0.9 | 5.2 | 0.00 | 0.06 | 0.01 | 82 | 1016.3 |
| 20260830211045 | 83 | 125 | 0.9 | 3.5 | 0.00 | 0.08 | 0.01 | 83 | 1016.4 |
| 20260830210044 | 82 | 117 | 1.7 | 3.5 | 0.00 | 0.60 | 0.01 | 82 | 1016.4 |
| 20260830205043 | 82 | 115 | 1.7 | 5.2 | 0.00 | 0.71 | 0.01 | 81 | 1016.5 |
| 20260830204516 | 82 | 102 | 2.6 | 7.0 | 0.00 | 0.71 | 0.01 | 81 | 1016.4 |
| 20260830203027 | 82 | 124 | 2.6 | 7.0 | 0.00 | 0.71 | 0.01 | 82 | 1016.4 |
| 20260830202510 | 82 | 100 | 3.5 | 7.8 | 0.00 | 0.71 | 0.01 | 81 | 1016.4 |
| 20260830201502 | 82 | 139 | 2.6 | 7.0 | 0.00 | 0.71 | 0.01 | 80 | 1016.4 |
| 20260830200025 | 83 | 140 | 1.7 | 6.1 | 0.00 | 0.71 | 0.01 | 79 | 1016.5 |
| 20260830195937 | 83 | 42 | 2.6 | 6.1 | 0.00 | 0.71 | 0.01 | 80 | 1016.4 |
| 20260830194448 | 83 | 90 | 4.3 | 8.7 | 0.00 | 0.71 | 0.01 | 78 | 1016.5 |
| 20260830193014 | 83 | 136 | 4.3 | 10.4 | 0.00 | 0.71 | 0.01 | 79 | 1016.4 |
| 20260830192449 | 83 | 97 | 4.3 | 9.6 | 0.00 | 0.71 | 0.01 | 78 | 1016.7 |
| 20260830191014 | 84 | 121 | 5.2 | 11.3 | 0.00 | 0.71 | 0.01 | 78 | 1016.8 |
| 20260830190013 | 84 | 158 | 6.1 | 12.2 | 0.00 | 0.71 | 0.01 | 76 | 1016.6 |
| 20260830185455 | 85 | 112 | 7.8 | 16.5 | 0.00 | 0.71 | 0.01 | 75 | 1016.9 |
| 20260830184014 | 90 | 148 | 6.1 | 15.6 | 0.00 | 0.71 | 0.01 | 66 | 1016.8 |
| 20260830183015 | 93 | 81 | 3.5 | 8.7 | 0.00 | 0.71 | 0.01 | 65 | 1016.6 |
| 20260830182506 | 93 | 101 | 4.3 | 8.7 | 0.00 | 0.71 | 0.01 | 62 | 1016.5 |
| 20260830181009 | 93 | 138 | 3.5 | 8.7 | 0.00 | 0.71 | 0.01 | 65 | 1016.7 |
| 20260830180004 | 93 | 138 | 3.5 | 9.6 | 0.00 | 0.71 | 0.01 | 62 | 1016.7 |
| 20260830174959 | 93 | 124 | 2.6 | 7.8 | 0.00 | 0.71 | 0.01 | 62 | 1016.8 |
| 20260830173948 | 92 | 122 | 2.6 | 7.0 | 0.00 | 0.71 | 0.01 | 62 | 1017.1 |
| 20260830172942 | 92 | 119 | 3.5 | 7.0 | 0.00 | 0.71 | 0.01 | 64 | 1017.2 |
| 20260830171943 | 92 | 42 | 2.6 | 8.7 | 0.00 | 0.71 | 0.01 | 67 | 1017.5 |
| 20260830170939 | 91 | 73 | 2.6 | 7.8 | 0.00 | 0.71 | 0.01 | 68 | 1017.6 |
| 20260830165938 | 92 | 71 | 3.5 | 9.6 | 0.00 | 0.71 | 0.01 | 69 | 1017.7 |
| 20260830164938 | 91 | 152 | 3.5 | 7.8 | 0.00 | 0.71 | 0.01 | 68 | 1017.9 |
| 20260830163934 | 90 | 97 | 2.6 | 7.0 | 0.00 | 0.71 | 0.01 | 70 | 1017.9 |